Find Starlink 6231

NORAD ID: 56779 Int'l Des: 2023-078 Owner: SPXS Country: US Constellation: starlink operational
LEOCIRCULAR

現在のビュー

3D地球を読み込み中...

About Starlink 6231

Starlink 6231 (NORAD 56779) is a starlink constellation satellite (v1.5) launched May 31, 2023 by SPXS of US. It operates in LEO, CIRCULAR orbit with a mass of 305.00 kg.

次回通過

Passes for default location (London). Set your location on the main map for personalized predictions.

高度履歴

Loading altitude history...

軌道要素

1 56779U 23078N 26263.58335648 .00060398 00000-0 42118-2 0 9999
2 56779 70.0008 192.9968 0001643 266.3145 263.6308 15.05060335 5715
Epoch: Sep 20, 2026 • Age: 11 hours

現在のステータス

高度 556.8 km
遠地点 / 近地点 N/A
速度 7.58 km/s
衛星直下点 -16.84°S, 1.19°W
打ち上げ日 May 31, 2023
運用期間 3.3 years
タイプ internet

技術仕様

分類 Payload
質量 305.00 kg
乾燥質量 290.00 kg
長さ 0.20 m
スパン 9.00 m
形状 ? Box + pan
製造者 SPXS
バスタイプ Starlink
フェーズステータス In Orbit
所有者/国 SPXS/US

Most Searched